Location: Montreal
(45.5000°N, 73.5833°W)
Time: 01:40:30
(UTC-05:00)

Vanguard 1 - Pass Details

Date: 24 October 2017
Orbit: 650 x 3834 km, 34.2° (Epoch: 17 November)

Event Time Altitude Azimuth Distance (km) Brightness Sun altitude
Rises 02:30:23 0° 256° (WSW) 5,368 - -48.8°
Reaches altitude 10° 02:33:21 10° 252° (WSW) 4,709 - -48.4°
Maximum altitude 02:47:32 58° 179° (S) 3,493 - -46.6°
Exits shadow 02:49:50 56° 157° (SSE) 3,679 12.6 -46.3°
Drops below altitude 10° 03:09:30 10° 108° (ESE) 6,935 14.7 -43.5°
Sets 03:15:05 0° 105° (ESE) 7,950 15.1 -42.7°
